Location: K�ln
(50.9455°N, 6.9544°E)
Time: 21:20:58
(UTC+01:00)

N. Korean satellite - Visible Passes

Search period start: 18 February 2018 00:00
Search period end: 28 February 2018 00:00
Orbit: 459 x 514 km, 97.2° (Epoch: 17 February)

Date Brightness Start Highest point End Pass type
(mag) Time Alt. Az. Time Alt. Az. Time Alt. Az.
19 Feb 9.9 19:21:48 10° SW 19:24:04 16° W 19:26:21 10° NW visible
20 Feb 9.0 06:42:29 10° NNE 06:45:42 29° E 06:48:57 10° SSE visible
20 Feb 8.8 18:57:05 10° SSW 19:00:08 29° W 19:03:14 10° NNW visible
21 Feb 10.0 06:19:20 10° NE 06:21:48 17° E 06:24:16 10° SE visible
21 Feb 7.4 18:32:54 10° S 18:36:17 54° W 18:39:45 10° NNW visible
23 Feb 9.9 19:20:12 10° SW 19:22:33 17° W 19:24:56 10° NW visible
24 Feb 9.1 06:40:59 10° NE 06:44:13 28° E 06:47:29 10° SSE visible
24 Feb 8.8 18:55:31 10° SSW 18:58:37 30° W 19:01:46 10° NNW visible
25 Feb 10.1 06:17:51 10° NE 06:20:18 17° E 06:22:45 10° SE visible
25 Feb 7.4 18:31:20 10° S 18:34:46 56° W 18:38:16 10° NNW visible
27 Feb 9.9 19:18:33 10° SW 19:20:59 18° W 19:23:28 10° NW visible
